Regional Weather Roundup
Issued by NWS

Home | Current Version | Previous Version | Text Only | Print | Product List | Glossary On
Versions: 1 2 3 4 5 6 7 8 9 10 11 12 13 14 15 16 17 18 19 20 21 22 23 24 25 26 27 28 29 30 31 32 33 34 35 36 37 38 39 40 41 42 43 44 45 46 47 48 49 50
771
ASUS43 KIND 221959
RWRIN

WEATHER ROUNDUP FOR INDIANA
NATIONAL WEATHER SERVICE INDIANAPOLIS IN
400 PM EDT FRI MAY 22 2015

NOTE: "FAIR" INDICATES FEW OR NO CLOUDS BELOW 12,000 FEET WITH NO
SIGNIFICANT WEATHER AND/OR OBSTRUCTIONS TO VISIBILITY.

* - STATION DOES NOT REPORT WEATHER SUCH AS PRECIPITATION OR FOG.

+ - STATION NOT QUALITY CONTROLLED BY THE NATIONAL WEATHER SERVICE.
    USE DATA WITH CAUTION...ESPECIALLY DEWPOINT AND RELATIVE
    HUMIDITY OBSERVATIONS.

INZ001>003-010>013-019-020-222100-
NORTHWEST INDIANA

CITY           SKY/WX    TMP DP  RH WIND       PRES   REMARKS
GARY /AIRPORT/ MOSUNNY   57  37  47 NE12      30.27S
RENSSELAER +   SUNNY     73  34  23 N10G17    30.21S

$$

LMZ046-743>745-222100-
SOUTHERN LAKE MICHIGAN

STATION/POSITION TIME  TEMP    WIND        PRES    WAVE
                       AIR SEA DIR/SP/G            HT
                 (UTC) (F)     (DEG/KT/KT) (MB)    (FT)
BURNS HARBOR     1900   52      50/ 10/ 11 1025.4R
MICHIGAN CITY    1900   50      20/ 11/ 13   N/A
5NW MICH CITY    1900   49 51   50/ 12/ 14   N/A     2

$$

INZ004-005-014>016-021>024-222100-
NORTH CENTRAL INDIANA

CITY           SKY/WX    TMP DP  RH WIND       PRES   REMARKS
GOSHEN         SUNNY     68  41  37 NW5       30.22S
SOUTH BEND     SUNNY     70  33  25 NW15G21   30.24R

$$

INZ006>009-017-018-025>027-222100-
NORTHEAST INDIANA

CITY           SKY/WX    TMP DP  RH WIND       PRES   REMARKS
ANGOLA *+      SUNNY     68  36  30 NW12      30.22S
FORT WAYNE     MOSUNNY   71  36  27 VRB5      30.21F

$$

INZ028-029-035-036-043>045-051>053-222100-
WEST CENTRAL INDIANA

CITY           SKY/WX    TMP DP  RH WIND       PRES   REMARKS
CRAWFORDSVL +  SUNNY     72  33  23 N12       30.21S
GREENCASTLE +  MOSUNNY   72  41  33 CALM      30.22S
LAFAYETTE      MOSUNNY   71  45  39 E8        30.19F
TERRE HAUTE    PTSUNNY   74  48  39 S9        30.22S

$$

INZ030>032-037>040-046>048-054>057-064-065-222100-
CENTRAL INDIANA

CITY           SKY/WX    TMP DP  RH WIND       PRES   REMARKS
COLUMBUS       SUNNY     73  39  29 W12       30.21F
INDIANAPOLIS   PTSUNNY   76  43  30 W8G18     30.20S
-EAGLE CREEK   MOSUNNY   73  42  32 N7        30.20S
KOKOMO *+      MOSUNNY   73  43  33 W7        30.20F
MT COMFORT *+  SUNNY     75  23  14 W3        30.20F
SHELBYVILLE    SUNNY     77  43  29 SW9       30.19F

$$

INZ033-034-041-042-049-050-058-059-222100-
EAST CENTRAL INDIANA

CITY           SKY/WX    TMP DP  RH WIND       PRES   REMARKS
MUNCIE         MOSUNNY   72  44  36 NW10      30.20S

$$

INZ060-061-067>069-081>083-085>088-222100-
SOUTHWEST INDIANA

CITY           SKY/WX    TMP DP  RH WIND       PRES   REMARKS
EVANSVILLE     MOSUNNY   74  51  44 W10       30.26S
HUNTINGBURG *+ MOSUNNY   72  52  49 W9        30.25S

$$

INZ062-063-066-070>080-084-089>092-222100-
SOUTH CENTRAL AND SOUTHEAST INDIANA

CITY           SKY/WX    TMP DP  RH WIND       PRES   REMARKS
BLOOMINGTON    MOSUNNY   72  44  36 W6        30.23S
MADISON *+     MOSUNNY   73  39  29 W7        30.24F
SEYMOUR +      SUNNY     77  46  33 W14G23    30.22F

$$




USA.gov is the U.S. government's official web portal to all federal, state and local government web resources and services.